SQ7FZR-13 Weather Reports


Display with metric or nautical units.
time (UTC)temp
F
wind
direction
speed
MPH
gust
MPH
rain 1hr
in
rain 24hr
in
rain mn
in
humidity
%
barometer
mb
20260507003641 60 199 2.0 6.0 0.00 0.00 0.00 73 1007.3
20260507002941 60 181 1.0 2.0 0.00 0.00 0.00 73 1007.4
20260507002241 60 188 1.0 2.0 0.00 0.00 0.00 73 1007.4
20260507001541 60 203 0.0 2.0 0.00 0.00 0.00 73 1007.4
20260507000842 60 0 0.0 0.0 0.00 0.00 0.00 72 1007.3
20260506235842 60 0 0.0 0.0 0.00 0.00 0.00 73 1007.4
20260506235142 60 0 0.0 0.0 0.00 0.00 0.00 72 1007.4
20260506233742 60 0 0.0 0.0 0.00 0.00 0.00 72 1007.5
20260506233042 60 0 0.0 0.0 0.00 0.00 0.00 71 1007.4
20260506232342 60 0 0.0 0.0 0.00 0.00 0.00 71 1007.4
20260506231642 60 0 0.0 0.0 0.00 0.00 0.00 70 1007.2
20260506230942 60 0 0.0 0.0 0.00 0.00 0.00 69 1007.3
20260506230242 60 0 0.0 0.0 0.00 0.00 0.00 69 1007.2
20260506225542 60 0 0.0 0.0 0.00 0.00 0.00 68 1007.0
20260506224843 61 0 0.0 0.0 0.00 0.00 0.00 67 1007.2
20260506224143 61 0 0.0 0.0 0.00 0.00 0.00 67 1007.0
20260506222742 62 0 0.0 0.0 0.00 0.00 0.00 66 1007.1
20260506222042 62 0 0.0 0.0 0.00 0.00 0.00 65 1007.2
20260506221342 62 0 0.0 0.0 0.00 0.00 0.00 64 1007.0
20260506220642 63 0 0.0 0.0 0.00 0.00 0.00 63 1007.1
20260506215942 63 0 0.0 0.0 0.00 0.00 0.00 63 1007.1
20260506215242 64 0 0.0 0.0 0.00 0.00 0.00 63 1007.1
20260506214542 64 0 0.0 0.0 0.00 0.00 0.00 63 1007.1
20260506213842 64 0 0.0 0.0 0.00 0.00 0.00 62 1007.3
20260506213142 64 0 0.0 0.0 0.00 0.00 0.00 62 1007.4
20260506212442 64 0 0.0 0.0 0.00 0.00 0.00 62 1007.6
20260506211742 64 0 0.0 0.0 0.00 0.00 0.00 61 1007.7
20260506211042 64 203 0.0 2.0 0.00 0.00 0.00 61 1007.8
20260506202842 67 194 3.0 6.0 0.00 0.00 0.00 58 1008.1
20260506202142 67 187 3.0 9.0 0.00 0.00 0.00 56 1007.9
20260506201442 67 182 5.0 9.0 0.00 0.00 0.00 55 1007.7
20260506200742 66 181 1.0 5.0 0.00 0.00 0.00 55 1007.8
20260506200042 65 0 0.0 0.0 0.00 0.00 0.00 56 1007.6
20260506195342 65 0 0.0 0.0 0.00 0.00 0.00 56 1007.5
20260506194642 65 0 0.0 0.0 0.00 0.00 0.00 56 1007.5
20260506193942 65 0 0.0 0.0 0.00 0.00 0.00 55 1007.3
20260506193242 65 0 0.0 0.0 0.00 0.00 0.00 55 1007.4
20260506192542 66 0 0.0 0.0 0.00 0.00 0.00 54 1007.3
20260506191142 66 0 0.0 0.0 0.00 0.00 0.00 53 1007.2
20260506190442 67 0 0.0 0.0 0.00 0.00 0.00 51 1007.4
20260506185742 67 0 0.0 0.0 0.00 0.00 0.00 51 1007.4
20260506185042 68 0 0.0 0.0 0.00 0.00 0.00 50 1007.3
20260506184342 68 0 0.0 0.0 0.00 0.00 0.00 49 1007.2
20260506183642 69 0 0.0 0.0 0.00 0.00 0.00 48 1007.1
20260506182942 69 0 0.0 0.0 0.00 0.00 0.00 47 1007.1
20260506182242 70 0 0.0 0.0 0.00 0.00 0.00 46 1007.0
20260506181542 71 0 0.0 0.0 0.00 0.00 0.00 45 1006.8
20260506180842 71 0 0.0 0.0 0.00 0.00 0.00 44 1006.8
20260506180142 72 0 0.0 0.0 0.00 0.00 0.00 44 1006.8
20260506175442 73 0 0.0 0.0 0.00 0.00 0.00 42 1006.6
20260506174742 74 0 0.0 0.0 0.00 0.00 0.00 42 1006.7
20260506174042 74 0 0.0 0.0 0.00 0.00 0.00 41 1006.7
20260506173341 75 0 0.0 0.0 0.00 0.00 0.00 40 1006.7
20260506172641 76 0 0.0 0.0 0.00 0.00 0.00 40 1006.8
20260506171942 76 0 0.0 0.0 0.00 0.00 0.00 39 1006.6
20260506165841 77 181 2.0 7.0 0.00 0.00 0.00 38 1006.6
20260506165142 77 181 1.0 7.0 0.00 0.00 0.00 37 1006.5
20260506164441 77 181 1.0 2.0 0.00 0.00 0.00 37 1006.5
20260506163742 77 181 0.0 2.0 0.00 0.00 0.00 36 1006.4
20260506163041 78 181 1.0 3.0 0.00 0.00 0.00 36 1006.4
20260506162341 78 182 4.0 7.0 0.00 0.00 0.00 36 1006.5
20260506161641 78 197 4.0 7.0 0.00 0.00 0.00 35 1006.5
20260506160242 79 181 1.0 6.0 0.00 0.00 0.00 35 1006.4
20260506155541 80 181 1.0 3.0 0.00 0.00 0.00 36 1006.4
20260506154841 80 181 2.0 3.0 0.00 0.00 0.00 35 1006.4
20260506153441 81 181 4.0 5.0 0.00 0.00 0.00 34 1006.5
20260506152741 82 181 2.0 5.0 0.00 0.00 0.00 33 1006.5
20260506152042 83 181 2.0 4.0 0.00 0.00 0.00 33 1006.7
20260506151341 84 181 3.0 5.0 0.00 0.00 0.00 33 1006.7
20260506150641 84 181 2.0 6.0 0.00 0.00 0.00 33 1006.7
20260506145941 84 157 3.0 6.0 0.00 0.00 0.00 31 1006.7
20260506145241 86 158 4.0 6.0 0.00 0.00 0.00 30 1006.7
20260506144541 87 1 2.0 5.0 0.00 0.00 0.00 29 1006.8
20260506143841 87 181 1.0 7.0 0.00 0.00 0.00 30 1006.8
20260506143141 86 181 2.0 7.0 0.00 0.00 0.00 31 1006.8
20260506142441 85 0 0.0 0.0 0.00 0.00 0.00 30 1006.5
20260506141041 85 162 3.0 5.0 0.00 0.00 0.00 33 1006.8
20260506134941 83 181 5.0 9.0 0.00 0.00 0.00 35 1006.7
20260506134242 82 181 2.0 9.0 0.00 0.00 0.00 35 1006.8
20260506133541 82 181 0.0 2.0 0.00 0.00 0.00 35 1006.8
20260506132841 82 45 1.0 3.0 0.00 0.00 0.00 35 1006.7
20260506132141 83 24 2.0 4.0 0.00 0.00 0.00 35 1006.7
20260506131441 82 182 4.0 8.0 0.00 0.00 0.00 35 1006.7
20260506130741 81 172 5.0 8.0 0.00 0.00 0.00 36 1006.5
20260506130041 81 73 3.0 8.0 0.00 0.00 0.00 36 1006.7
20260506125341 81 140 1.0 4.0 0.00 0.00 0.00 36 1006.7
20260506124641 82 197 4.0 8.0 0.00 0.00 0.00 36 1006.7
20260506123241 79 197 2.0 4.0 0.00 0.00 0.00 38 1006.8
20260506121841 81 189 6.0 9.0 0.00 0.00 0.00 36 1006.8
20260506121141 82 185 5.0 9.0 0.00 0.00 0.00 36 1006.9
20260506120441 82 174 4.0 12.0 0.00 0.00 0.00 36 1006.7
20260506115741 81 166 4.0 12.0 0.00 0.00 0.00 36 1006.8
20260506115041 80 203 0.0 0.0 0.00 0.00 0.00 36 1006.7
20260506114341 80 191 2.0 6.0 0.00 0.00 0.00 36 1006.7
20260506113641 81 201 5.0 6.0 0.00 0.00 0.00 36 1006.7
20260506112941 81 170 5.0 8.0 0.00 0.00 0.00 36 1006.7
20260506112241 81 177 7.0 10.0 0.00 0.00 0.00 36 1006.6
20260506111541 81 191 4.0 10.0 0.00 0.00 0.00 36 1006.6
20260506110841 80 181 3.0 7.0 0.00 0.00 0.00 36 1006.4
20260506110141 80 181 2.0 5.0 0.00 0.00 0.00 36 1006.4
20260506105441 79 181 4.0 5.0 0.00 0.00 0.00 37 1006.9
20260506104741 77 182 4.0 5.0 0.00 0.00 0.00 38 1006.5
20260506104041 77 163 5.0 9.0 0.00 0.00 0.00 38 1006.6
20260506103341 76 132 5.0 9.0 0.00 0.00 0.00 38 1006.6
20260506102642 76 172 3.0 7.0 0.00 0.00 0.00 38 1006.8
20260506101941 76 171 2.0 7.0 0.00 0.00 0.00 38 1006.6
20260506100541 75 189 6.0 8.0 0.00 0.00 0.00 38 1006.5
20260506095841 75 174 7.0 11.0 0.00 0.00 0.00 39 1006.6
20260506095141 74 181 3.0 11.0 0.00 0.00 0.00 38 1006.6
20260506093741 74 188 3.0 6.0 0.00 0.00 0.00 38 1006.7
20260506092341 74 182 5.0 9.0 0.00 0.00 0.00 38 1006.6
20260506091641 74 192 5.0 9.0 0.00 0.00 0.00 39 1006.6
20260506090940 73 201 3.0 6.0 0.00 0.00 0.00 39 1006.6
20260506085541 73 168 1.0 2.0 0.00 0.00 0.00 39 1006.6
20260506084841 73 156 0.0 5.0 0.00 0.00 0.00 40 1006.6
20260506084141 72 151 3.0 5.0 0.00 0.00 0.00 40 1006.7
20260506083441 72 136 1.0 5.0 0.00 0.00 0.00 40 1006.6
20260506082740 71 181 3.0 6.0 0.00 0.00 0.00 41 1006.5
20260506082040 71 188 5.0 8.0 0.00 0.00 0.00 41 1006.5
20260506081341 71 181 4.0 8.0 0.00 0.00 0.00 42 1006.4
20260506080640 70 181 1.0 4.0 0.00 0.00 0.00 43 1006.4
20260506073140 69 172 1.0 3.0 0.00 0.00 0.00 44 1006.8
20260506072440 69 181 1.0 3.0 0.00 0.00 0.00 44 1006.8
20260506071740 68 175 3.0 6.0 0.00 0.00 0.00 44 1006.8
20260506071040 68 165 3.0 6.0 0.00 0.00 0.00 45 1006.8
20260506070341 67 181 1.0 4.0 0.00 0.00 0.00 45 1006.8
20260506062140 64 0 0.0 0.0 0.00 0.00 0.00 48 1007.0
20260506061440 64 0 0.0 0.0 0.00 0.00 0.00 48 1006.9
20260506060740 63 0 0.0 0.0 0.00 0.00 0.00 49 1006.9
20260506051140 59 0 0.0 0.0 0.00 0.00 0.00 54 1006.9
20260506050440 58 0 0.0 0.0 0.00 0.00 0.00 55 1006.9
20260506045040 57 0 0.0 0.0 0.00 0.00 0.00 57 1007.2
20260506044340 57 0 0.0 0.0 0.00 0.00 0.00 58 1007.2
20260506042940 56 0 0.0 0.0 0.00 0.00 0.00 60 1007.3
20260506041541 55 0 0.0 0.0 0.00 0.00 0.00 61 1007.3
20260506040840 54 0 0.0 0.0 0.00 0.00 0.00 61 1007.1
20260506035544 54 0 0.0 0.0 0.00 0.00 0.00 61 1007.3
20260506034843 54 0 0.0 0.0 0.00 0.00 0.00 61 1007.2
20260506034144 54 0 0.0 0.0 0.00 0.00 0.00 61 1007.2
20260506033443 54 0 0.0 0.0 0.00 0.00 0.00 61 1007.3
20260506032043 54 0 0.0 0.0 0.00 0.00 0.00 60 1007.1
20260506031343 54 0 0.0 0.0 0.00 0.00 0.00 60 1007.2
20260506030643 55 0 0.0 0.0 0.00 0.00 0.00 59 1007.3
20260506025943 55 0 0.0 0.0 0.00 0.00 0.00 59 1007.3
20260506024543 55 0 0.0 0.0 0.00 0.00 0.00 59 1007.2
20260506023143 56 0 0.0 0.0 0.00 0.00 0.00 58 1007.2
20260506022443 56 0 0.0 0.0 0.00 0.00 0.00 58 1007.3
20260506021743 56 0 0.0 0.0 0.00 0.00 0.00 57 1007.3
20260506021043 56 0 0.0 0.0 0.00 0.00 0.00 57 1007.3
20260506020343 56 0 0.0 0.0 0.00 0.00 0.00 57 1007.3
20260506015643 56 0 0.0 0.0 0.00 0.00 0.00 56 1007.4
20260506014943 56 0 0.0 0.0 0.00 0.00 0.00 55 1007.4
20260506013543 57 0 0.0 0.0 0.00 0.00 0.00 54 1007.5
20260506012843 57 0 0.0 0.0 0.00 0.00 0.00 54 1007.6
20260506012143 57 0 0.0 0.0 0.00 0.00 0.00 53 1007.5
20260506010743 58 0 0.0 0.0 0.00 0.00 0.00 52 1007.3
20260506010043 59 0 0.0 0.0 0.00 0.00 0.00 51 1007.3
20260506004643 59 0 0.0 0.0 0.00 0.00 0.00 50 1007.3